Location: Unspecified
(47.1700°N, 0.0000°E)
Time: 17:38:32
(UTC+00:00)

ISS - Visible Passes

Search period start: 24 May 2019 00:00
Search period end: 03 June 2019 00:00
Orbit: 408 x 418 km, 51.6° (Epoch: 25 May)

Date Brightness Start Highest point End Pass type
(mag) Time Alt. Az. Time Alt. Az. Time Alt. Az.
24 May -1.1 00:40:50 10° WNW 00:41:11 12° WNW 00:41:11 12° WNW visible
24 May -2.5 20:37:29 10° W 20:40:41 44° NNW 20:43:55 10° ENE visible
24 May -2.4 22:14:36 10° WNW 22:17:48 39° N 22:20:20 14° ENE visible
24 May -2.2 23:51:19 10° WNW 23:53:08 29° WNW 23:53:08 29° WNW visible
25 May -2.3 21:25:03 10° WNW 21:28:11 36° N 21:31:20 10° ENE visible
25 May -3.6 23:01:50 10° WNW 23:05:07 73° NNE 23:05:07 73° NNE visible
26 May -2.2 20:35:25 10° WNW 20:38:33 36° N 20:41:43 10° ENE visible
26 May -3.1 22:12:19 10° WNW 22:15:37 54° NNE 22:17:09 27° E visible
26 May -1.4 23:49:07 10° WNW 23:49:57 16° W 23:49:57 16° W visible
27 May -2.7 21:22:47 10° WNW 21:26:01 43° NNE 21:29:12 10° E visible
27 May -3.0 22:59:30 10° WNW 23:02:01 43° W 23:02:01 43° W visible
28 May -2.4 20:33:13 10° WNW 20:36:23 38° N 20:39:34 10° ENE visible
28 May -3.9 22:09:56 10° WNW 22:13:18 87° SSW 22:14:05 50° ESE visible
29 May -3.5 21:20:24 10° WNW 21:23:45 66° NNE 21:26:10 17° ESE visible
29 May -1.9 22:57:21 10° W 22:58:59 21° WSW 22:58:59 21° WSW visible
30 May -3.0 20:30:51 10° WNW 20:34:08 50° NNE 20:37:25 10° E visible
30 May -3.3 22:07:36 10° WNW 22:10:47 41° SW 22:11:05 40° SSW visible
31 May -3.7 21:17:59 10° WNW 21:21:17 65° SSW 21:23:14 22° SE visible
01 Jun -3.7 20:28:23 10° WNW 20:31:44 84° NNE 20:35:05 10° ESE visible
01 Jun -2.0 22:05:37 10° W 22:08:04 19° SW 22:08:13 19° SW visible
02 Jun -2.5 21:15:41 10° W 21:18:38 30° SW 21:20:25 18° SSE visible
